STARLINK-1848, 46740

Orbit data source: Space-Track

STARLINK-1848, 46740 is a payload satellite owned by SpaceX/Seattle (US) in LEO that was launched on Sat, 24 Oct 2020 UTC via an FALCON 9 launch vehicle from the Air Force Eastern Test Range (AFETR). Payload-class satellites include a variety of spacecraft equipped with specific instruments for various scientific and technological missions. These include communications satellites like Starlink; space stations such as the ISS; scientific satellites like the Hubble; Earth observation satellites from companies like Planet Labs, Umbra, and HawkEye 360; GPS; miniature CubeSats for education and research; and military/defense satellites.

Loading next visibility...
Identifier
46740, 2020-074B
Orbit
LEO
Country
Flag of USUS
Related business
Manufacturer
SpaceX/Seattle
Mission
Partially operational Commercial Communications
Bus & Motor
STARLINK, Unknown motor
Mass
260 kg wet, ~248 kg dry
Launch date (UTC)
2020-10-24 (5 years ago)
Launch vehicle
FALCON 9
Launch site
Air Force Eastern Test Range (AFETR)
Object type
Payload
Rocket body
Debris
Shape & HBR
Box + 1 Pan, 10.1 m
Radar Cross Section
13.562 m², Large (>1 m²)

Expand to show TLE details & history
Last TLE update: 9 hours ago

TLE from 9 hours ago
0 STARLINK-1848
1 46740U 20074B   25354.25003472  .00207851  00000-0  25021-2 0  9991
2 46740  53.0480 290.0692 0004207  67.9478 352.1502 15.59618566  5976
Epoch: 2025-12-20T06:00Z
TLE epoch observation values (Epoch: 2025-12-20T06:00:02.999Z)
Latitude
43.98614°
Longitude
157.19861°
Altitude
390.377 km
Speed
7.683 km/s
True Right ascension
22h 25m 09s
True Declination
43° 48' 18"
Sunlit
Object was in daylight at epoch
Visualization orbit readout
Latitude
Unknown
Longitude
Unknown
Altitude
Unknown
Speed
Unknown
Apparent Right ascension
Unknown
Apparent Declination
Unknown
Sunlit
N/A
Visualization observer readout
Local Sidereal Time
13:53:10
Azimuth
Unknown
Elevation
Unknown
Doppler factor
Unknown
Orbital elements
Apogee altitude
391.885 km
Perigee altitude
386.191 km
Semi-major axis
6,767.175 km
Eccentricity
0.00042
Inclination
53.048°
RAAN
290.0692°
Arg. of periapsis
67.9478°
True anomaly
352.14361°
Mean anomaly
352.1502°
Eccentric anomaly
352.14691°
Mean motion
3.89881 °/min
Orbital period
92.34 mins
BSTAR
0.0025021
Loading maneuver chart data...
Computing Atmospheric mass density...

Documentation

Showing up to 5 results
|